[Iaude] MPEC D23: 2024 CE8 [a=2.69,e=0.72,i=7.4,H=25.5]

mpec at cfa.harvard.edu mpec at cfa.harvard.edu
Fri Feb 16 19:29:04 EST 2024


M.P.E.C. 2024-D23                             Issued 2024 February 17, 00:27 UT

     The Minor Planet Electronic Circulars contain information on unusual
         minor planets, routine data on comets and natural satellites,
         and occasional editorial announcements.  They are published
    on behalf of Division F of the International Astronomical Union by the
          Minor Planet Center, Smithsonian Astrophysical Observatory,
                          Cambridge, MA 02138, U.S.A.
			  
             Prepared using the Tamkin Foundation Computer Network

                              MPC at CFA.HARVARD.EDU
            URL https://www.minorplanetcenter.net/    ISSN 1523-6714

                                    2024 CE8                                    


Observations:
     K24C08E* C2024 02 15.39780810 37 28.138-02 01 26.90         21.34wXED023F51
     K24C08E  C2024 02 15.40947710 37 34.902-02 01 47.59         21.22wXED023F51
     K24C08E  C2024 02 15.42110410 37 41.665-02 02 08.26         20.98wXED023F51
     K24C08E  C2024 02 15.43274210 37 48.424-02 02 28.92         21.06wXED023F51
     K24C08E  C2024 02 15.55861810 39 02.827-02 06 16.37         20.68GVED023F52
     K24C08E  C2024 02 15.55926510 39 03.228-02 06 17.67         20.58GVED023F52
     K24C08E KC2024 02 16.27585 10 47 36.18 -02 30 46.7          20.9 GVED023H36
     K24C08E KC2024 02 16.28664 10 47 44.13 -02 31 09.1          20.4 GVED023H36
     K24C08E KC2024 02 16.29359710 47 51.133-02 31 12.86         20.59GVED023I52
     K24C08E KC2024 02 16.29581110 47 52.811-02 31 17.29         20.54GVED023I52
     K24C08E KC2024 02 16.29802610 47 54.424-02 31 22.26         20.48GVED023I52
     K24C08E KC2024 02 16.30023210 47 56.069-02 31 27.44         20.51GVED023I52
     K24C08E KC2024 02 16.98708710 57 52.61 -02 59 24.3          20.3 GVED023L01
     K24C08E KC2024 02 16.98906310 57 54.42 -02 59 29.3          20.3 GVED023L01
     K24C08E KC2024 02 16.99103610 57 56.24 -02 59 34.4          20.9 GVED023L01
     K24C08E KC2024 02 16.99263910 57 57.74 -02 59 38.3          20.4 GVED023L01

Observer details:
F51 Pan-STARRS 1, Haleakala.  Observers J. Herman, T. Lowe, P. Minguez, A.
    Schultz, I. Smith.  Measurers K. Chambers, T. de Boer, J. Fairlamb, H.
    Gao, M. Huber, C.-C. Lin, E. Magnier, Y. Ramanjooloo, R. Wainscoat, R.
    Weryk.  1.8-m Ritchey-Chretien + CCD.
F52 Pan-STARRS 2, Haleakala.  Observers J. Herman, T. Lowe, P. Minguez, A.
    Schultz, I. Smith.  Measurers K. Chambers, T. de Boer, J. Fairlamb, H.
    Gao, M. Huber, C.-C. Lin, E. Magnier, Y. Ramanjooloo, R. Wainscoat, R.
    Weryk.  1.8-m Ritchey-Chretien + CCD.
H36 Sandlot Observatory, Scranton.  Observer G. Hug.  .56 meter Reflector +
    CCD.
I52 Steward Observatory, Mt. Lemmon Station.  Observer J. B. Fazekas.
    Measurers E. C. Beshore, D. Fay, J. B. Fazekas, D. C. Fuls, A. R. Gibbs,
    A. D. Grauer, H. Groeller, J. K. Hogan, R. A. Kowalski, S. M. Larson, G.
    J. Leonard, D. Rankin, R. L. Seaman, F. C. Shelly, K. W. Wierzchos.  1.0-m
    prime focus + CCD.
L01 Visnjan Observatory, Tican.  Observer K. Korlevic.  1.0-m f/2.9 reflector
    + CCD.

Orbital elements:
2024 CE8                                                 Earth MOID = 0.0050 AU
Epoch 2024 Mar. 31.0 TT = JDT 2460400.5                 Veres                   
M 359.52419              (2000.0)            P               Q                  
n   0.22354711     Peri.   65.37400     -0.78262010     +0.61969226             
a   2.6887888      Node   152.80322     -0.60759433     -0.73980084             
e   0.7160297      Incl.    7.42370     -0.13540648     -0.26206147             
P   4.41           H   25.52          G   0.15           U   8                  
Residuals in seconds of arc
240215 F51  0.0   0.1-    240216 H36 (1.0+  2.1-)   240216 L01  0.2+  0.3-
240215 F51  0.1-  0.0     240216 H36  0.0   0.8-    240216 L01  0.1-  0.1-
240215 F51  0.1+  0.0     240216 I52  0.0   0.2-    240216 L01  0.1-  0.1+
240215 F51  0.0   0.2+    240216 I52  0.4+  0.2+    240216 L01  0.1+  0.4+
240215 F52  0.1-  0.1+    240216 I52  0.2-  0.2+
240215 F52  0.1+  0.1-    240216 I52  0.2-  0.1-

Ephemeris:
2024 CE8                 a,e,i = 2.69, 0.72, 7                   q = 0.7635
Date    TT    R. A. (2000) Decl.     Delta      r    Elong.  Phase     V
2024 01 18    09 32 31.8 +02 39 10   0.4215  1.3662   150.4    20.8    25.3
...
2024 02 02    09 46 56.7 +00 53 28   0.2311  1.2050   159.9    16.3    23.6
...
2024 02 10    10 04 43.4 -00 20 26   0.1391  1.1204   162.8    15.1    22.3
...
2024 02 16    10 44 06.8 -02 19 43   0.07465 1.0585   160.6    18.0    20.9
2024 02 17    10 58 03.3 -02 58 15   0.06454 1.0484   158.7    20.0    20.7
2024 02 18    11 17 02.6 -03 48 55   0.05478 1.0383   155.6    23.1    20.4
...
2024 02 24    17 34 29.2 -09 28 08   0.03232 0.9797    71.6   106.6    22.0
...
2024 03 03    20 25 35.2 -04 00 19   0.1085  0.9076    37.5   138.4    27.1
...
2024 03 18    21 10 08.7 -02 40 15   0.2776  0.8036    40.2   126.9    27.7

M. P. C. Staff               (C) Copyright 2024 MPC           M.P.E.C. 2024-D23





More information about the Iaude mailing list